Weather History for Saranac Lake, NY

Change the Weather History Date:

Tuesday, July 8, 2014

  Actual Average Record
Temperature  
Mean Temperature 70 °F 64 °F  
Max Temperature 83 °F 76 °F 91 °F (2010)
Min Temperature 56 °F 51 °F 35 °F (1969)
Cooling Degree Days 5 2  
Month to date cooling degree days 28 16  
Year to date cooling degree days 50 45  
Since 1 June cooling degree days 49 42  
Growing Degree Days 18 (Base 50)    
Moisture  
Dew Point 62 °F    
Average Humidity 74    
Maximum Humidity 100    
Minimum Humidity 47    
Precipitation  
Precipitation 0.21 in 0.13 in 1.14 in (1980)
Month to date precipitation 0.99 1.14  
Year to date precipitation 19.93 17.34  
Sea Level Pressure  
Sea Level Pressure 29.65 in    
Wind  
Wind Speed 10 mph (SW)    
Max Wind Speed 18 mph    
Max Gust Speed 32 mph    
Visibility 6 miles    
Events Fog , Rain , Thunderstorm    
T = Trace of Precipitation, MM = Missing Value Source: NWS Daily Summary

Daily Weather History Graph

Daily Weather History Graph

Search for Another Location

Airport:

Trip Planner

Search our weather history database for the weather conditions in past years. The results will help you decide how hot, cold, wet, or windy it might be!

Date:

Astronomy

Jul. 08, 2014 Rise Set
Actual Time 5:20 AM EDT 8:42 PM EDT
Civil Twilight 4:44 AM EDT 9:18 PM EDT
Nautical Twilight 3:57 AM EDT 10:05 PM EDT
Astronomical Twilight 2:58 AM EDT 11:04 PM EDT
Moon 4:43 PM EDT (7/8) 1:56 AM EDT (7/8)
Length of Visible Light 16h 33m
Length of Day
15h 21m
Waxing Gibbous, 81% of the Moon is Illuminated
Jul 8
Waxing Gibbous
Jul 12
Full
Jul 18
Last Quarter
Jul 26
New
Aug 3
First Quarter

Hourly Weather History & Observations

Time (EDT) Temp. Heat Index Dew Point Humidity Pressure Visibility Wind Dir Wind Speed Gust Speed Precip Events Conditions
12:15 AM 66.9 °F - 64.9 °F 93% 29.70 in 5.0 mi SW 4.6 mph - N/A Thunderstorm Overcast
12:32 AM 66.9 °F - 66.0 °F 97% 29.70 in 5.0 mi SSW 5.8 mph - N/A   Overcast
12:51 AM 66.9 °F - 66.0 °F 97% 29.69 in 4.0 mi WSW 9.2 mph - 0.02 in Rain , Thunderstorm Light Thunderstorms and Rain
1:06 AM 68.0 °F - 66.0 °F 93% 29.71 in 5.0 mi SW 9.2 mph - 0.00 in   Mostly Cloudy
1:21 AM 66.9 °F - 66.0 °F 97% 29.71 in 6.0 mi WSW 6.9 mph - 0.00 in   Scattered Clouds
2:51 AM 62.1 °F - 61.0 °F 96% 29.72 in 4.0 mi SSW 5.8 mph - N/A   Partly Cloudy
3:51 AM 61.0 °F - 60.1 °F 97% 29.72 in 7.0 mi SW 5.8 mph - N/A   Clear
4:51 AM 61.0 °F - 60.1 °F 97% 29.70 in 8.0 mi SW 5.8 mph - N/A   Clear
5:16 AM 57.9 °F - 57.9 °F 100% 29.71 in 2.0 mi SSW 5.8 mph - N/A   Clear
5:23 AM 57.0 °F - 57.0 °F 100% 29.70 in 1.2 mi South 5.8 mph - N/A   Clear
5:33 AM 55.9 °F - 55.9 °F 100% 29.70 in 0.2 mi SSW 4.6 mph - N/A Fog Fog
5:44 AM 57.9 °F - 57.9 °F 100% 29.70 in 0.5 mi SW 3.5 mph - N/A Fog Fog
5:49 AM 57.2 °F - 57.2 °F 100% 29.71 in 1.2 mi WSW 4.6 mph - N/A   Partly Cloudy
5:51 AM 57.9 °F - 57.9 °F 100% 29.69 in 2.0 mi WSW 4.6 mph - N/A   Partly Cloudy
6:00 AM 59.0 °F - 59.0 °F 100% 29.71 in 3.0 mi Calm Calm - N/A   Scattered Clouds
6:08 AM 59.0 °F - 57.9 °F 96% 29.72 in 2.5 mi Calm Calm - N/A   Mostly Cloudy
6:17 AM 60.1 °F - 59.0 °F 96% 29.73 in 4.0 mi SSW 3.5 mph - N/A   Mostly Cloudy
6:51 AM 61.0 °F - 60.1 °F 97% 29.73 in 4.0 mi Calm Calm - N/A   Partly Cloudy
7:51 AM 66.0 °F - 64.0 °F 93% 29.73 in 6.0 mi SW 6.9 mph - N/A   Clear
8:51 AM 71.1 °F - 64.9 °F 81% 29.73 in 8.0 mi SW 8.1 mph - N/A   Partly Cloudy
9:47 AM 73.4 °F - 64.4 °F 73% 29.76 in 10.0 mi SW 8.1 mph - N/A   Mostly Cloudy
9:51 AM 73.0 °F - 64.9 °F 76% 29.73 in 10.0 mi SW 10.4 mph - N/A   Scattered Clouds
10:51 AM 75.0 °F - 62.1 °F 64% 29.72 in 10.0 mi SW 9.2 mph - N/A   Scattered Clouds
11:51 AM 75.0 °F - 62.1 °F 64% 29.70 in 10.0 mi SW 9.2 mph - N/A   Partly Cloudy
12:51 PM 78.1 °F - 63.0 °F 60% 29.68 in 10.0 mi SW 12.7 mph 20.7 mph N/A   Scattered Clouds
1:51 PM 80.1 °F 81.5 °F 63.0 °F 56% 29.66 in 10.0 mi WSW 9.2 mph 18.4 mph N/A   Scattered Clouds
2:51 PM 82.0 °F 82.7 °F 61.0 °F 49% 29.64 in 10.0 mi SW 18.4 mph 24.2 mph N/A   Partly Cloudy
3:51 PM 80.1 °F 81.1 °F 61.0 °F 52% 29.62 in 10.0 mi SSW 13.8 mph - N/A   Scattered Clouds
4:51 PM 78.1 °F - 63.0 °F 60% 29.60 in 10.0 mi South 16.1 mph - N/A   Mostly Cloudy
5:51 PM 75.0 °F - 66.9 °F 76% 29.56 in 9.0 mi South 6.9 mph - 0.00 in   Overcast
6:51 PM 75.9 °F - 63.0 °F 64% 29.52 in 9.0 mi SSW 11.5 mph 17.3 mph N/A   Clear
7:51 PM 75.9 °F - 64.0 °F 67% 29.51 in 9.0 mi South 15.0 mph 23.0 mph N/A   Mostly Cloudy
8:14 PM 71.1 °F - 66.9 °F 87% 29.56 in 3.0 mi WSW 11.5 mph 23.0 mph 0.09 in Rain , Thunderstorm Thunderstorms and Rain
8:19 PM 70.0 °F - 66.9 °F 90% 29.56 in 1.8 mi SW 17.3 mph 21.9 mph 0.14 in Rain , Thunderstorm Heavy Thunderstorms and Rain
8:30 PM 68.0 °F - 64.9 °F 90% 29.55 in 2.5 mi SW 20.7 mph 34.5 mph 0.19 in Rain , Thunderstorm Heavy Thunderstorms and Rain
8:40 PM 66.9 °F - 64.0 °F 90% 29.54 in 5.0 mi SW 18.4 mph 25.3 mph 0.20 in Rain , Thunderstorm Light Thunderstorms and Rain
8:49 PM 66.2 °F - 64.4 °F 94% 29.54 in 7.0 mi SSW 15.0 mph 26.5 mph 0.21 in Rain Light Rain
8:51 PM 66.0 °F - 64.0 °F 93% 29.52 in 8.0 mi SW 12.7 mph 26.5 mph 0.21 in Rain Light Rain
10:13 PM 66.9 °F - 64.0 °F 90% 29.57 in 10.0 mi SW 16.1 mph - N/A   Mostly Cloudy
10:51 PM 66.0 °F - 63.0 °F 90% 29.55 in 10.0 mi SW 16.1 mph 25.3 mph N/A   Overcast
11:21 PM 64.9 °F - 61.0 °F 87% 29.59 in 10.0 mi SW 13.8 mph - N/A   Scattered Clouds
11:51 PM 64.0 °F - 60.1 °F 87% 29.58 in 10.0 mi SW 13.8 mph 20.7 mph N/A   Clear